Tracking 35275 objects as of 8-Sep-2026
HD Live streaming from Space Station
objects crossing your sky now

FALCON 9 DEB


FALCON 9 DEB is no longer on orbit


NORAD ID: 51819
Int'l Code: 2022-017BD
Launch date: February 25, 2022
Source: United States (US)
Launch site: AIR FORCE WESTERN TEST RANGE (AFWTR)
Decay date: 2022-04-09

Note: This is SATELLITE DEBRIS
Your satellite tracking list
Your tracking list is empty




NASA's NSSDC Master Catalog

Two Line Element Set (TLE):
1 51819U 22017BD  22098.74895466  .10869295  12519-4  26617-3 0  9993
2 51819  53.2035 287.6407 0006908 276.9405  83.0860 16.45666396  6737
Source of the keplerian elements: AFSPC